Regional Weather Roundup
Issued by NWS

Home | Current Version | Previous Version | Graphics & Text | Print | Product List | Glossary On
Versions: 1 2 3 4 5 6 7 8 9 10 11 12 13 14 15 16 17 18 19 20 21 22 23 24 25 26 27 28 29 30 31 32 33 34 35 36 37 38 39 40 41 42 43 44 45 46 47 48 49 50
000
ASUS45 KBOU 282207
RWRCO

WEATHER ROUNDUP FOR COLORADO
NATIONAL WEATHER SERVICE DENVER/BOULDER CO
300 PM MST FRI NOV 28 2014

NOTE: "FAIR" INDICATES FEW OR NO CLOUDS BELOW 12000 FEET WITH NO
SIGNIFICANT WEATHER AND/OR OBSTRUCTIONS TO VISIBILITY.

COZ001>005-013-030-031-282300-
...NORTHWEST COLORADO...

CITY           SKY/WX    TMP DP  RH WIND       PRES   REMARKS
CRAIG          PTSUNNY   52  21  29 VRB3      29.99F
HAYDEN         PTSUNNY   41  25  52 CALM      30.01S
MEEKER         CLOUDY    54  18  24 SW7       30.02F
MOUNT WERNER   NOT AVBL
STEAMBOAT SPGS PTSUNNY   35  26  68 CALM      30.02S
WALDEN         PTSUNNY   50  12  22 S12G18    30.04S
$$

COZ006>008-011-282300-
...WEST CENTRAL VALLEYS...

CITY           SKY/WX    TMP DP  RH WIND       PRES   REMARKS
GRAND JUNCTION MOSUNNY   49  25  39 NW5       30.05F
MONTROSE       SUNNY     59  20  22 N5        30.06F
EAGLE          MOSUNNY   55  19  24 W12       30.05F
RIFLE          PTSUNNY   50  23  34 CALM      30.04F
DELTA          SUNNY     59  24  26 SW8       30.04F
NUCLA          SUNNY     59  18  20 NW5       30.10F
$$

COZ017>023-064>068-282300-
...SOUTHWEST COLORADO...

CITY           SKY/WX    TMP DP  RH WIND       PRES   REMARKS
DURANGO        SUNNY     58  14  17 S6        30.13F
CORTEZ         SUNNY     58  22  24 SW8       30.11F
PAGOSA SPRINGS SUNNY     56   6  13 S7        30.17S
TELLURIDE      SUNNY     53   6  15 W10       30.22S
WOLF CREEK PAS SUNNY     34   9  35 MISG      30.30S
$$

COZ009-010-012-014-032>034-037-058>063-282300-
...CENTRAL COLORADO...

CITY           SKY/WX    TMP DP  RH WIND       PRES   REMARKS
ASPEN          MOSUNNY   51  19  28 W6        30.07F
BUENA VISTA    MOSUNNY   57   4  11 W6G24     30.05S
COPPER MTN     PTSUNNY   37   3  23 W23G33    30.23S
BERTHOUD PASS  NOT AVBL
COTTONWOOD PAS MOSUNNY   50  -9   8 W32G46    30.09S
GUNNISON       SUNNY     36  19  51 N6        30.18F
KREMMLING      MOSUNNY   50  12  22 W6        30.04F
LEADVILLE      MOSUNNY   44   8  23 W14       30.14S
MONARCH PASS   MOSUNNY   34   3  27 W49G58    30.33F WCI  17
SALIDA         MOSUNNY   62   1   8 W18       30.12F
SUNLIGHT       PTSUNNY   37  25  60 CALM      30.21S
WILKERSON PASS MOSUNNY   41  -4  15 W13G32    30.17S
$$

COZ069>075-282300-
...SAN LUIS VALLEY/SANGRE DE CRISTO MOUNTAINS...

CITY           SKY/WX    TMP DP  RH WIND       PRES   REMARKS
ALAMOSA        SUNNY     60  12  15 W5        30.07F
LA VETA PASS   MOSUNNY   45   9  23 S22G32    30.13S
SAGUACHE       SUNNY     52  18  25 S6        30.10F
$$

COZ035-036-038>040-282300-
...NORTHERN COLORADO FRONT RANGE...

CITY           SKY/WX    TMP DP  RH WIND       PRES   REMARKS
DENVER INTL AP CLOUDY    62  19  19 S9        29.83F
DMNS CITY PARK   N/A     64  13  13 E8        29.82S
AURORA         PTSUNNY   61  20  20 E8        29.85F
FRONT RANGE AP NOT AVBL
ERIE MUNI ARPT CLOUDY    67   6   9 SW15G22   29.80F
BOULDER MUN AP CLOUDY    70  12  11 SW8G20    29.78F
CENTENNIAL     CLOUDY    65  16  15 E5        29.84F
BROOMFIELD     PTSUNNY   68  10  10 SW12G22   29.83F
FORT COLLINS   CLOUDY    66  12  12 SW17G31   29.81R
LONGMONT       CLOUDY    65  14  14 E12       29.80F
$$

COZ041-046-047-076>085-087-088-282300-
...PIKES PEAK/PALMER DIVIDE AND SOUTHERN FOOTHILLS...

CITY           SKY/WX    TMP DP  RH WIND       PRES   REMARKS
COLO. SPRINGS  PTSUNNY   66   8  10 SE6       29.89F
A. F. ACADEMY  PTSUNNY   67  -1   6 W9        29.90F
ELLICOTT       NOT AVBL
FALCON         NOT AVBL
FORT CARSON    MOSUNNY   70   5   7 NW9G18    29.86F
LIMON          PTSUNNY   64  12  13 SE5       29.85F
MONUMENT HILL  CLOUDY    61   9  12 SW3       29.92S
TRINIDAD       CLOUDY    63  25  23 CALM      29.93F
$$

COZ042>045-048>051-090-091-282300-
...NORTHEAST COLORADO...

CITY           SKY/WX    TMP DP  RH WIND       PRES   REMARKS
GREELEY ARPT   CLOUDY    50  30  46 N5        29.81S
AKRON          CLOUDY    59  25  27 SW9       29.81F
BURLINGTON     MOSUNNY   73  12   9 N7        29.81
WRAY           PTSUNNY   70  14  11 W6        29.77S
STERLING       CLOUDY    55  37  50 SW5       29.76F
HOLYOKE        PTSUNNY   64  30  27 SW3       29.76F
FORT MORGAN    CLOUDY    54  26  33 CALM      29.81S
$$

COZ086-089-092>099-282300-
...SOUTHEAST COLORADO...

CITY           SKY/WX    TMP DP  RH WIND       PRES   REMARKS
PUEBLO         MOSUNNY   71   9   9 SW15      29.83F
LA JUNTA       MOSUNNY   73  12   9 SW13      29.82F
LAMAR          PTSUNNY   76  12   8 W15       29.78F
SPRINGFIELD      N/A     71  10   9 W8        29.85R
$$



USA.gov is the U.S. government's official web portal to all federal, state and local government web resources and services.